Weather Roundup
Issued by NWS

Home | Current Version | Previous Version | Text Only | Print | Product List | Glossary On
Versions: 1 2 3 4 5 6 7 8 9 10 11 12 13 14 15 16 17 18 19 20 21 22 23 24 25 26 27 28 29 30 31 32 33 34 35 36 37 38 39 40 41 42 43 44 45 46 47 48 49 50
000
NZUS93 KARX 251910
HRRWXR

CURRENT HOURLY OBSERVATIONS ACROSS
MUCH OF THE UPPER MISSISSIPPI VALLEY
NATIONAL WEATHER SERVICE LA CROSSE WI
100 PM CST SUN FEB 25 2018


...SOUTHEAST MINNESOTA...


CITY           SKY/WX    TMP DP  RH WIND       PRES   REMARKS
ROCHESTER      FAIR      24  17  74 W17       29.79R WCI  11
ROCHESTER/MAYO FAIR      25  16  69 SW15G28   29.80R WCI  13
WINONA         FAIR      30  19  64 W13G22    29.79S WCI  20
AUSTIN         FAIR      25  16  68 W18       29.82R WCI  11
ALBERT LEA     FAIR      25  16  68 W8G16     29.82S WCI  16
DODGE CENTER   FAIR      21  16  79 W14       29.79R WCI   8
PRESTON        FAIR      26  19  74 W16G22    29.81R WCI  13
OWATONNA       FAIR      25  18  74 SW17      29.80S WCI  11
FARIBAULT      PTSUNNY   27  18  69 SW15      29.79F WCI  15
$$

...ELSEWHERE IN MINNESOTA...


CITY           SKY/WX    TMP DP  RH WIND       PRES   REMARKS
MINNEAPOLIS    CLOUDY    25  17  72 W14       29.77R WCI  13
INTNL FALLS    CLOUDY    27  20  75 W17G24    29.46R WCI  14
DULUTH         CLOUDY    24  18  77 W22G29    29.52R WCI   9
RED WING       FAIR      27  12  54 W18G24    29.77S WCI  13
REDWOOD FALLS  SUNNY     27  21  78 W14G23    29.79S WCI  16
MANKATO        FAIR      26  18  71 W22       29.81R WCI  12
WORTHINGTON    MOSUNNY   25  20  81 W21       29.83S WCI  11
FAIRMONT       FLURRIES  26  18  71 W17       29.85S WCI  13
$$

...SOUTHWEST WISCONSIN...


CITY           SKY/WX    TMP DP  RH WIND       PRES   REMARKS
LA CROSSE      FAIR      32  21  64 SW7       29.81S WCI  26
PRAIRIE DU CHI FAIR      36  20  52 SW15G23   29.87R WCI  27
BOSCOBEL       FAIR      38  21  50 SW16G25   29.85S WCI  29
LONE ROCK      FAIR      37  22  54 W12G23    29.84R WCI  29
PLATTEVILLE    FAIR      36  26  66 SW22G28   29.88R WCI  24
FORT MC COY    FAIR      31  20  65 SW15G23   29.79R WCI  20
CAMP DOUGLAS   MOSUNNY   32  23  69 W16       29.76R WCI  21
MAUSTON-NEW LI FAIR      32  22  65 W14G21    29.77R HAZE    WCI  22
VIROQUA        FAIR      31  23  73 W18       29.79R WCI  19
WIS DELLS      FAIR      35  20  54 W16       29.78R WCI  25
$$

...ELSEWHERE IN WISCONSIN...


CITY           SKY/WX    TMP DP  RH WIND       PRES   REMARKS
MILWAUKEE      FAIR      40  21  46 SW23G35   29.82R WCI  30
MADISON        FAIR      35  21  56 SW10G26   29.83R WCI  27
GREEN BAY      FAIR      34  21  59 W21G32    29.68F WCI  22
EAU CLAIRE     FAIR      25  15  66 W17G30    29.72R WCI  12
BLACK RVR FLS  FAIR      31  19  58 W10G17    29.76S WCI  23
MEDFORD        CLOUDY    24  16  71 SW17G24   29.64R WCI  11
WAUSAU         FAIR      26  18  71 W20G29    29.64S WCI  12
WIS RAPIDS     FAIR      29  21  72 MISG      29.73R
MARSHFIELD     FAIR      27  18  69 W16       29.67R WCI  15
RICE LAKE      PTSUNNY   25  16  68 SW18      29.70R WCI  11
$$

...NORTHEAST IOWA...


CITY           SKY/WX    TMP DP  RH WIND       PRES   REMARKS
WATERLOO       FAIR      33  24  69 W21       29.90R WCI  21
DUBUQUE        FAIR      37  24  59 W22G29    29.88R WCI  26
DECORAH        FAIR      30  21  69 W10G20    29.83R WCI  21
MASON CITY     SUNNY     27  20  75 W18G29    29.87R WCI  14
CHARLES CITY   FAIR      28  23  80 W18G26    29.86S WCI  16
OELWEIN        FAIR      32  28  86 W17G25    29.89R WCI  21
$$

...ELSEWHERE IN IOWA...


CITY           SKY/WX    TMP DP  RH WIND       PRES   REMARKS
DES MOINES     MOSUNNY   40  26  57 W17       29.97S WCI  31
IOWA CITY      FAIR      44  24  45 W23G30    29.97S
FORT DODGE     SUNNY     34  21  59 W14       29.92R WCI  25
MARSHALLTOWN   SUNNY     36  26  67 W21       29.93R WCI  25
CEDAR RAPIDS   FAIR      41  26  55 SW20G26   29.92R
$$

...NORTHERN ILLINOIS...


CITY           SKY/WX    TMP DP  RH WIND       PRES   REMARKS
CHICAGO-OHARE  FAIR      41  23  48 W18G25    29.92R
CHICAGO-MIDWAY FAIR      43  24  47 W21G26    29.94S
MOLINE         FAIR      44  26  49 SW21G29   29.96R
ROCKFORD       FAIR      38  23  55 SW20G30   29.92R WCI  28
PEORIA         FAIR      45  25  45 W12       30.03R
$$

NOTE: "FAIR" INDICATES FEW OR NO CLOUDS BELOW 12,000 FEET WITH NO
SIGNIFICANT WEATHER AND/OR OBSTRUCTIONS TO VISIBILITY. WIND
SPEEDS ARE IN MILES-PER-HOUR.




USA.gov is the U.S. government's official web portal to all federal, state and local government web resources and services.